www.pogodaiklimat.ru

Погода и климат >> Архив погоды >> Россия >> Краснодарский край >> Белая Глина


ПОГОДА в Белой Глине

  • Прогноз погоды в Белой Глине
  • Монитор погоды в Белой Глине

АРХИВ ПОГОДЫ в Белой Глине

Время (UTC), дата Ветер
(напр.,м/с)
 
Видим.   Явления Облачность Т
(С)
Тd
(С)
f
(%)
Тe
(С)
Тes
(С)
Комфортность P
(гПа)
Po
(гПа)
Тmin
(С)
Tmax
(С)
R
(мм)
R24
(мм)
S
(см)
09 11.02 ЮВ 1 10 км 9/4 600 м
[Sc Ac trans]
+6.1 +2.0 75 +5 +7 1022.6 1014.0
12 11.02 ЮВ 3 10 км 8/8 600 м
[Sc]
+8.5 +1.2 60 +6 +7 1021.4 1012.9
15 11.02 В 1 10 км 10/10 600 м
[Sc]
+7.8 +2.0 67 +7 +7 1021.7 1013.2 +8.8
18 11.02 В 3 10 км ясно +5.5 +0.7 71 +2 +2 1021.5 1012.9
21 11.02 В 1 10 км ясно +1.5 +0.2 91 -0 -0 1021.0 1012.3
00 12.02 СВ 1 10 км дымка ясно -0.6 -1.1 96 -3 -3 1021.0 1012.2
03 12.02 В 4 500 м переохл. туман ?/? -0.3 -0.6 98 -6 -6 1020.7 1011.9 -1.3
06 12.02 В 5 4000 м дымка 10/10 600 м
[Sc]
+2.1 +1.3 94 -4 -4 1020.3 1011.7
09 12.02 В 5 10 км 6/0
[Ac trans]
+6.4 +1.3 70 +2 +4 1019.1 1010.6
12 12.02 В 5
{10}
10 км 8/3 600 м
[Sc Ac trans]
+9.8 +0.8 53 +7 +8 1017.4 1009.0
15 12.02 В 5
{10}
10 км 10/0
[Ac cast Cc]
+6.0 -0.6 63 +2 +2 1018.3 1009.8 +10.1
18 12.02 В 5 10 км 8/0
[Cs]
+1.7 -2.6 73 -4 -4 1019.4 1010.7
21 12.02 В 3 10 км 3/0
[Ci fib]
-0.7 -3.5 81 -5 -5 1019.9 1011.1
00 13.02 В 3 10 км ясно -2.7 -4.7 86 -8 -8 1020.2 1011.4
03 13.02 В 2 4000 м дымка ясно -3.2 -4.3 92 -7 -7 1020.6 1011.7 -3.2
06 13.02 В 3 10 км 6/0
[Cs]
-0.7 -2.6 87 -6 -4 1021.8 1013.0 -3.4
09 13.02 ЮВ 3 10 км 8/0
[Cs]
+6.3 -0.7 61 +4 +8 1021.5 1012.9
12 13.02 штиль 0 10 км 10/0
[Cs]
+12.1 +0.4 45 +12 +15 1021.1 1012.7
15 13.02 СЗ 1 10 км 6/0
[Ci fib]
+8.2 +1.3 62 +8 +8 1021.8 1013.3 +12.2
18 13.02 З 2 10 км 6/0
[Ci fib]
+5.2 +1.0 74 +3 +3 1023.0 1014.4
21 13.02 СЗ 2 10 км 4/0
[Ci fib]
+2.8 -0.4 79 -0 -0 1024.4 1015.7
00 14.02 СЗ 1 10 км 10/0
[Ac trans Cs]
+2.4 -1.6 75 +1 +1 1024.7 1016.0
03 14.02 СЗ 1 10 км 10/0
[Ac und]
+1.2 -2.2 78 -1 -1 1025.4 1016.6 +1.2
06 14.02 С 2 10 км 10/0
[Ac lent]
+1.0 -2.4 78 -2 -2 1026.6 1017.8 +0.8
09 14.02 СВ 3 10 км 8/0
[Ac trans]
+2.6 -5.2 56 -1 +2 1026.7 1017.9
12 14.02 СВ 3 10 км 10/0
[Ac trans Cs]
+4.2 -5.2 50 +1 +2 1025.1 1016.5
15 14.02 СВ 3 10 км 10/0
[Ac lent]
+2.8 -6.7 50 -1 -1 1025.4 1016.7 +4.5
18 14.02 СВ 4 10 км 10/0
[Ac lent]
+0.7 -7.7 53 -4 -4 1026.2 1017.4
21 14.02 СВ 4 10 км 10/0
[Ac lent]
-1.5 -7.6 63 -7 -7 1026.0 1017.1
00 15.02 СВ 3 10 км 10/0
[Ac lent]
-2.6 -6.5 75 -8 -8 1026.3 1017.4
03 15.02 СВ 4 10 км 10/0
[Ac lent]
-3.5 -6.3 81 -10 -10 1026.5 1017.6 -3.5
06 15.02 СВ 3 10 км 9/0
[Ac trans]
-2.7 -6.6 74 -8 -7 1028.0 1019.1 -3.9
09 15.02 СВ 4 10 км 6/0
[Ci fib]
+2.1 -6.6 53 -2 +1 1026.6 1017.8
12 15.02 СВ 2 10 км 3/0
[Ci fib]
+4.2 -6.7 45 +2 +5 1025.1 1016.4
15 15.02 СВ 2 10 км ясно +1.7 -8.9 45 -1 -1 1025.0 1016.3 +4.4
18 15.02 С 1 10 км ясно -2.9 -9.0 63 -5 -5 1024.9 1016.1
21 15.02 СЗ 1 10 км ясно -6.0 -9.1 79 -8 -8 1023.7 1014.8
00 16.02 ЮЗ 1 10 км ясно -8.0 -10.2 84 -10 -10 1022.1 1013.0
03 16.02 ЮЗ 2 10 км ясно -5.9 -8.6 81 -10 -10 1021.6 1012.6 -8.5
06 16.02 З 3 10 км 10/0
[Ac lent Cs]
-3.3 -7.2 74 -8 -8 1021.4 1012.5
09 16.02 З 4 10 км 10/0
[Ac lent]
+0.4 -3.9 73 -5 -4 1020.7 1012.0
12 16.02 З 5-10
{10}
10 км 10/10 600 м
[Sc]
+0.8 -2.4 79 -5 -5 1019.8 1011.1
15 16.02 З 2
{11}
10 км 10/10 600 м
[Sc]
+1.4 -2.0 78 -2 -2 1020.1 1011.4 +1.5
18 16.02 З 3 10 км 10/10 600 м
[Sc]
+1.3 -2.0 79 -3 -3 1020.7 1012.0
21 16.02 З 3 10 км 10/10 600 м
[Sc]
+1.3 -2.0 79 -3 -3 1020.7 1012.0
00 17.02 З 3 4000 м дымка {ливн. осадки} 10/10 300 м
[Cb cap]
+0.9 -0.2 92 -4 -4 1020.1 1011.4
03 17.02 З 3 10 км 10/10 600 м
[Sc]
+0.5 -2.0 83 -4 -4 1020.1 1011.4 +0.5 0.3
06 17.02 З 4 10 км 10/10 600 м
[Sc]
+0.8 -2.0 82 -4 -4 1019.9 1011.2 +0.4
09 17.02 З 8-13
{13}
4000 м дымка {ливн. осадки} 10/10 300 м
[Cb cap]
+2.7 +1.1 89 -4 -4 1017.9 1009.3
12 17.02 З 10-15
{16}
10 км {ливн. осадки} 10/10 600 м
[Sc]
+4.2 +0.7 78 -2 -2 1015.2 1006.7
15 17.02 З 8-15
{17}
10 км 9/9 600 м
[Sc]
+6.5 +2.4 75 +1 +1 1012.8 1004.3 +6.5
18 17.02 З 10-17
{20}
10 км 3/3 600 м
[Sc]
+6.2 +2.0 74 0 0 1011.5 1003.0
21 17.02 З 11-17
{20}
10 км 10/10 600 м
[Sc]
+7.2 +2.6 73 +2 +2 1010.0 1001.6
00 18.02 З 8-16
{19}
10 км 10/10 600 м
[Sc]
+7.0 +2.3 72 +2 +2 1009.7 1001.3
03 18.02 З 7-13
{17}
10 км 10/10 600 м
[Sc]
+4.8 +0.5 74 -1 -1 1009.7 1001.2 +4.8
06 18.02 З 6-11
{14}
10 км 10/10 600 м
[Sc]
+3.5 -1.7 69 -2 -2 1012.2 1003.7 +3.5

 

Местоположение метеостанции Белая Глина (Краснодарский край, Россия): широта 46.08 долгота 40.88 высота над уровнем моря 69 м.

В архиве по умолчанию представлена погода в Белой Глине за последнюю неделю. Архивные данные за месяц целиком и за предыдущие месяцы, начиная с января 2011 года, Вы можете получить, выбрав интересующий диапазон дат из раскрывающегося списка и нажав кнопку "Ввод!".


*Определитесь, кто Вы:
робот инопланетянин человек

Внимание! Время в таблицах - всемирное. Для получения местного времени необходимо прибавить поправку, которая равна 3 ч.

Смотрите также архив погоды в соседних городах и на ближайших метеорологических станциях:

Погода в Красногвардейском (Ставропольский край, Россия) (54 км)
Погода в Гиганте (Ростовская область, Россия) (61 км)
Погода в Тихорецке (Краснодарский край, Россия) (67 км)
Погода в Новоалександровске (Ставропольский край, Россия) (69 км)
Погода в Кропоткине (Краснодарский край, Россия) (76 км)
Погода в Сосыке (Краснодарский край, Россия) (81 км)
Погода в Городовиковске (Калмыкия, Россия) (84 км)
Погода в Зерноград (Ростовская область, Россия) (96 км)
Погода в Изобильном (Ставропольский край, Россия) (101 км)
Погода в Кущевской (Краснодарский край, Россия) (109 км)

Пояснения к столбцам:

Ветер - указаны скорость ветра в м/с - средняя за 10 мин, порывы в срок и между сроками (в фигурных скобках) и направление, откуда дует ветер: С - северный, СВ - северо-восточный, В - восточный, ЮВ - юго-восточный, Ю - южный, ЮЗ - юго-западный, З - западный, СЗ - северо-западный.
Видимость - горизонтальная дальность видимости в метрах или километрах. При видимости от 1 до 10 км при отсутствии осадков обычно наблюдается дымка, при ухудшении видимости до 1 км и менее - туман. В сухую погоду видимость может ухудшаться дымом, пылью или мглою.
Явления - указаны атмосферные явления, наблюдавшиеся в срок или в последний час перед сроком; фигурными скобками обозначены явления, наблюдавшиеся между сроками (за 1-3 часа до срока); квадратными скобками обозначены град или гололедные отложения с указанием их диаметра в мм.
Облачность - указаны через наклонную черту общая и нижняя облачность в баллах и высота нижней границы облаков в метрах; квадратными скобками обозначены формы облаков: Ci - перистые, Cs - перисто-слоистые, Cc - перисто-кучевые, Ac - высококучевые, As - высокослоистые, Sc - слоисто-кучевые, Ns - слоисто-дождевые, Cu - кучевые, Cb - кучево-дождевые. Подробнее классификацию облаков см. в Атласе облаков (PDF).
T - Температура воздуха - температура, измеренная на высоте 2 м над землей.
Td - Температура точки росы - температура, при понижении до которой содержащийся в воздухе водяной пар достигнет насыщения.
f - Относительная влажность воздуха - влажноcть воздуха, измеренная на высоте 2 м над землей.
Te - Эффективная температура - температура, которую ощущает одетый по сезону человек в тени. Характеристика душности погоды. При расчете учитывается влияние влажности воздуха и скорости ветра на теплоощущения человека.
Tes - Эффективная температура на солнце - температура, которую ощущает человек, с поправкой на солнечный нагрев. Характеристика знойности погоды. Зависит от высоты солнца над горизонтом, облачности и скорости ветра. Ночью, в пасмурную погоду, а также при ветре 12 м/с и более поправка равна нулю.
P - Атмосферное давление - приведенное к уровню моря атмосферное давление.
Po - Атмосферное давление - измеренное на уровне метеостанции атмосферное давление.
Tmin - Минимальная температура - минимум температуры воздуха на высоте 2 м над землей.
Tmax - Максимальная температура - максимум температуры воздуха на высоте 2 м над землей.
R - Количество осадков - Количество выпавших осадков за период времени, мм. При наведении курсора мыши на число - период времени, за который выпало указанное количество осадков.
R24 - Количество осадков - Количество выпавших осадков за 24 часа, мм.
S - Снежный покров - Высота снежного покрова, см. При наведении курсора мыши на число - состояние снежного покрова и степень покрытия местности в баллах.